Back to catalog

STARLINK-33803

AliveCommunicationsVLEO
NORAD 63517·PAYLOAD·🇺🇸 United States

Launched Apr 7, 2025 from Vandenberg Space Force Base

Loading…

Next Passes (next 24 hours)

TLE

FreshSource: CelesTrak SupGP

Epoch: Sep 14, 2026, 15:00 UTC

1 63517C 25071AA  26257.62548611 -.00031056  00000+0 -91810-3 0  2577
2 63517  53.1582 340.8524 0001197  84.2958  42.6592 15.34387423    17

Track STARLINK-33803 in real time with AllMySat

Download on the App Store